Weather History for Port Huron, MI

Change the Weather History Date:

Sunday, May 26, 2013

  Actual Average (KMTC) Record (KMTC)
Temperature  
Mean Temperature 45 °F -  
Max Temperature 60 °F 70 °F 85 °F (2008)
Min Temperature 30 °F 48 °F 33 °F (1969)
Degree Days  
Heating Degree Days 20    
Moisture  
Dew Point 35 °F    
Average Humidity 69    
Maximum Humidity 100    
Minimum Humidity 38    
Precipitation  
Precipitation 0.00 in - - ()
Sea Level Pressure  
Sea Level Pressure 30.31 in    
Wind  
Wind Speed 4 mph (North)    
Max Wind Speed 14 mph    
Max Gust Speed 18 mph    
Visibility 10 miles    
Events      
Averages and records for this station are not official NWS values.
T = Trace of Precipitation, MM = Missing Value Source: NWS Daily Summary

Daily Weather History Graph

Daily Weather History Graph

Search for Another Location

Airport:

Trip Planner

Search our weather history database for the weather conditions in past years. The results will help you decide how hot, cold, wet, or windy it might be!

Date:

Astronomy

May. 26, 2013 Rise Set
Actual Time 5:57 AM EDT 8:57 PM EDT
Civil Twilight 5:23 AM EDT 9:31 PM EDT
Nautical Twilight 4:40 AM EDT 10:14 PM EDT
Astronomical Twilight 3:49 AM EDT 11:05 PM EDT
Moon 10:43 PM EDT (5/26) 7:25 AM EDT (5/26)
Length of Visible Light 16h 07m
Length of Day
15h 00m
Waning Gibbous, 97% of the Moon is Illuminated
May 26
Waning Gibbous
May 31
Last Quarter
Jun 8
New
Jun 16
First Quarter
Jun 23
Full

Hourly Weather History & Observations

Time (EDT) Temp. Windchill Dew Point Humidity Pressure Visibility Wind Dir Wind Speed Gust Speed Precip Events Conditions
12:17 AM 32.0 °F - 32.0 °F 100% 30.32 in 10.0 mi Calm Calm - N/A   Clear
12:37 AM 32.0 °F - 32.0 °F 100% 30.32 in 4.0 mi Calm Calm - N/A   Clear
12:57 AM 30.2 °F - 30.2 °F 100% 30.32 in 10.0 mi Calm Calm - N/A   Clear
1:17 AM 30.2 °F - 30.2 °F 100% 30.31 in 10.0 mi Calm Calm - N/A   Clear
1:37 AM 30.2 °F - 30.2 °F 100% 30.31 in 10.0 mi Calm Calm - N/A   Clear
1:57 AM 32.0 °F 28.7 °F 32.0 °F 100% 30.31 in 10.0 mi WNW 3.5 mph - N/A   Clear
2:17 AM 32.0 °F - 32.0 °F 100% 30.31 in 10.0 mi Calm Calm - N/A   Clear
2:37 AM 32.0 °F - 32.0 °F 100% 30.30 in 10.0 mi Calm Calm - N/A   Clear
2:57 AM 32.0 °F - 32.0 °F 100% 30.30 in 10.0 mi Calm Calm - N/A   Clear
3:17 AM 30.2 °F - 30.2 °F 100% 30.30 in 10.0 mi Calm Calm - N/A   Clear
3:37 AM 32.0 °F - 32.0 °F 100% 30.30 in 10.0 mi Calm Calm - N/A   Clear
3:57 AM 32.0 °F - 32.0 °F 100% 30.30 in 10.0 mi Calm Calm - N/A   Clear
4:17 AM 30.2 °F - 30.2 °F 100% 30.29 in 10.0 mi Calm Calm - N/A   Clear
4:37 AM 30.2 °F - 30.2 °F 100% 30.30 in 10.0 mi Calm Calm - N/A   Clear
4:57 AM 32.0 °F - 32.0 °F 100% 30.30 in 10.0 mi Calm Calm - N/A   Clear
5:17 AM 32.0 °F - 32.0 °F 100% 30.30 in 10.0 mi Calm Calm - N/A   Clear
5:37 AM 30.2 °F - 30.2 °F 100% 30.31 in 10.0 mi Calm Calm - N/A   Clear
5:57 AM 30.2 °F - 30.2 °F 100% 30.30 in 10.0 mi Calm Calm - N/A   Clear
6:17 AM 30.2 °F - 30.2 °F 100% 30.31 in 7.0 mi Calm Calm - N/A   Clear
6:37 AM 32.0 °F 28.7 °F 32.0 °F 100% 30.32 in 10.0 mi WNW 3.5 mph - N/A   Clear
6:57 AM 35.6 °F 31.7 °F 33.8 °F 93% 30.33 in 10.0 mi WNW 4.6 mph - N/A   Clear
7:17 AM 35.6 °F 32.8 °F 33.8 °F 93% 30.33 in 10.0 mi WNW 3.5 mph - N/A   Clear
7:37 AM 39.2 °F 37.0 °F 35.6 °F 87% 30.33 in 10.0 mi NW 3.5 mph - N/A   Clear
7:57 AM 42.8 °F 41.1 °F 37.4 °F 81% 30.33 in 10.0 mi WNW 3.5 mph - N/A   Clear
8:17 AM 46.4 °F 45.2 °F 37.4 °F 71% 30.33 in 10.0 mi WNW 3.5 mph - N/A   Clear
8:37 AM 48.2 °F - 35.6 °F 62% 30.33 in 10.0 mi WNW 4.6 mph - N/A   Clear
8:57 AM 50.0 °F - 37.4 °F 62% 30.33 in 10.0 mi WNW 6.9 mph - N/A   Clear
9:17 AM 51.8 °F - 37.4 °F 58% 30.33 in 10.0 mi NW 5.8 mph - N/A   Clear
9:37 AM 53.6 °F - 39.2 °F 58% 30.33 in 10.0 mi North 6.9 mph - N/A   Clear
9:57 AM 55.4 °F - 39.2 °F 54% 30.35 in 10.0 mi NNW 4.6 mph - N/A   Clear
10:17 AM 57.2 °F - 39.2 °F 51% 30.34 in 10.0 mi NW 6.9 mph - N/A   Clear
10:37 AM 57.2 °F - 39.2 °F 51% 30.32 in 10.0 mi NW 6.9 mph - N/A   Clear
10:57 AM 57.2 °F - 37.4 °F 48% 30.32 in 10.0 mi North 5.8 mph - N/A   Clear
11:17 AM 59.0 °F - 37.4 °F 45% 30.32 in 10.0 mi NW 9.2 mph - N/A   Clear
11:37 AM 59.0 °F - 39.2 °F 48% 30.32 in 10.0 mi NNW 8.1 mph - N/A   Clear
11:57 AM 59.0 °F - 42.8 °F 55% 30.32 in 10.0 mi NE 12.7 mph - N/A   Clear
12:17 PM 59.0 °F - 42.8 °F 55% 30.32 in 10.0 mi NE 12.7 mph - N/A   Clear
12:37 PM 59.0 °F - 39.2 °F 48% 30.33 in 10.0 mi NE 12.7 mph - N/A   Clear
12:57 PM 60.8 °F - 39.2 °F 45% 30.33 in 10.0 mi NNE 12.7 mph 16.1 mph N/A   Clear
1:17 PM 59.0 °F - 39.2 °F 48% 30.33 in 10.0 mi NE 10.4 mph 16.1 mph N/A   Clear
1:37 PM 60.8 °F - 37.4 °F 42% 30.33 in 10.0 mi NE 13.8 mph 18.4 mph N/A   Clear
1:57 PM 59.0 °F - 37.4 °F 45% 30.33 in 10.0 mi NNE 6.9 mph 18.4 mph N/A   Clear
2:17 PM 60.8 °F - 35.6 °F 39% 30.32 in 10.0 mi NNE 12.7 mph - N/A   Clear
2:37 PM 59.0 °F - 35.6 °F 42% 30.32 in 10.0 mi NNE 13.8 mph - N/A   Clear
2:57 PM 59.0 °F - 35.6 °F 42% 30.33 in 10.0 mi NE 11.5 mph 16.1 mph N/A   Clear
3:17 PM 59.0 °F - 35.6 °F 42% 30.32 in 10.0 mi NE 13.8 mph 18.4 mph N/A   Clear
3:37 PM 60.8 °F - 37.4 °F 42% 30.32 in 10.0 mi NNE 11.5 mph - N/A   Clear
3:57 PM 59.0 °F - 35.6 °F 42% 30.32 in 10.0 mi NNE 12.7 mph - N/A   Clear
4:17 PM 57.2 °F - 33.8 °F 41% 30.31 in 10.0 mi NE 11.5 mph 16.1 mph N/A   Clear
4:37 PM 59.0 °F - 33.8 °F 39% 30.31 in 10.0 mi NE 11.5 mph - N/A   Clear
4:57 PM 57.2 °F - 33.8 °F 41% 30.31 in 10.0 mi NE 10.4 mph - N/A   Clear
5:17 PM 57.2 °F - 33.8 °F 41% 30.30 in 10.0 mi NE 12.7 mph - N/A   Clear
5:37 PM 57.2 °F - 32.0 °F 38% 30.30 in 10.0 mi NE 12.7 mph - N/A   Clear
5:57 PM 57.2 °F - 33.8 °F 41% 30.30 in 10.0 mi NE 12.7 mph 16.1 mph N/A   Clear
6:17 PM 55.4 °F - 32.0 °F 41% 30.29 in 10.0 mi NE 10.4 mph - N/A   Clear
6:37 PM 55.4 °F - 32.0 °F 41% 30.29 in 10.0 mi NE 10.4 mph - N/A   Clear
6:57 PM 55.4 °F - 32.0 °F 41% 30.29 in 10.0 mi NNE 8.1 mph - N/A   Clear
7:17 PM 53.6 °F - 32.0 °F 44% 30.28 in 10.0 mi NE 8.1 mph - N/A   Clear
7:37 PM 51.8 °F - 32.0 °F 47% 30.28 in 10.0 mi NNE 4.6 mph - N/A   Clear
7:57 PM 50.0 °F - 33.8 °F 54% 30.28 in 10.0 mi NE 4.6 mph - N/A   Clear
8:17 PM 48.2 °F - 33.8 °F 58% 30.27 in 10.0 mi Calm Calm - N/A   Clear
8:37 PM 48.2 °F - 32.0 °F 54% 30.27 in 10.0 mi NNE 3.5 mph - N/A   Clear
8:57 PM 44.6 °F - 33.8 °F 66% 30.27 in 10.0 mi Calm Calm - N/A   Clear
9:17 PM 44.6 °F - 33.8 °F 66% 30.27 in 10.0 mi Calm Calm - N/A   Clear
9:37 PM 42.8 °F - 35.6 °F 76% 30.27 in 10.0 mi Calm Calm - N/A   Clear
9:57 PM 42.8 °F - 35.6 °F 76% 30.27 in 10.0 mi Calm Calm - N/A   Clear
10:17 PM 41.0 °F - 35.6 °F 81% 30.27 in 10.0 mi Calm Calm - N/A   Clear
10:37 PM 41.0 °F - 33.8 °F 76% 30.27 in 10.0 mi Calm Calm - N/A   Clear
10:57 PM 39.2 °F - 35.6 °F 87% 30.28 in 10.0 mi Calm Calm - N/A   Clear
11:17 PM 37.4 °F - 35.6 °F 93% 30.27 in 10.0 mi Calm Calm - N/A   Clear
11:37 PM 37.4 °F - 35.6 °F 93% 30.28 in 10.0 mi Calm Calm - N/A   Clear
11:57 PM 35.6 °F - 33.8 °F 93% 30.27 in 10.0 mi Calm Calm - N/A   Clear